Hourly Data Report for October 06, 2017

All times are specified in Local Standard Time (LST). Add 1 hour to adjust for Daylight Saving Time where and when it is observed.

POWELL RIVER
BRITISH COLUMBIA

49°50'04.400" N
124°29'48.500" W
125.00 m
1046392
71720
VOP

Download Data

Hourly Data (October 2017)
Hourly Data Report for October 6, 2017
Temp Definition
°C
Dew Point Temp Definition
°C
Rel Hum Definition
%
Wind Dir Definition
10's deg

Wind Spd Definition
km/h
Visibility Definition
km
Stn Press Definition
kPa
Hmdx Definition


Wind Chill Definition


Weather Definition


TIME
00:00 5.6 4.9 95 LegendMM LegendMM   100.43     LegendNANA
01:00 4.8 4.2 96 LegendMM LegendMM   100.42     LegendNANA
02:00 7.1 6.5 96 LegendMM LegendMM   100.33     LegendNANA
03:00 10.7 8.0 83 LegendMM LegendMM   100.24     LegendNANA
04:00 9.3 7.4 88 LegendMM LegendMM   100.28     LegendNANA
05:00 10.1 7.9 86 LegendMM LegendMM   100.15     LegendNANA
06:00 11.1 7.1 76 LegendMM LegendMM   100.08     LegendNANA
07:00 11.2 7.6 78 LegendMM LegendMM   100.05     LegendNANA
08:00 11.3 7.3 77 LegendMM LegendMM   99.95     LegendNANA
09:00 11.1 8.4 84 LegendMM LegendMM   99.91     LegendNANA
10:00 11.4 8.4 82 LegendMM LegendMM   99.83     LegendNANA
11:00 11.6 7.6 77 LegendMM LegendMM   99.77     LegendNANA
12:00 11.7 7.4 75 LegendMM LegendMM   99.73     LegendNANA
13:00 12.4 7.5 72 LegendMM LegendMM   99.65     LegendNANA
14:00 13.9 8.3 69 LegendMM LegendMM   99.58     LegendNANA
15:00 14.5 8.7 68 LegendMM LegendMM   99.47     LegendNANA
16:00 12.5 9.8 84 LegendMM LegendMM   99.42     LegendNANA
17:00 12.1 10.0 87 LegendMM LegendMM   99.46     LegendNANA
18:00 10.5 8.3 86 LegendMM LegendMM   99.48     LegendNANA
19:00 9.6 8.1 90 LegendMM LegendMM   99.50     LegendNANA
20:00 9.5 7.1 85 LegendMM LegendMM   99.53     LegendNANA
21:00 8.7 6.1 84 LegendMM LegendMM   99.56     LegendNANA
22:00 10.7 4.3 64 LegendMM LegendMM   99.60     LegendNANA
23:00 11.0 3.5 60 LegendMM LegendMM   99.62     LegendNANA

Notes on Data Quality.

Legend

  • E = Estimated
  • M = Missing
  • NA = Not Available
  • ‡ = Partner data that is not subject to review by the National Climate Archives
Date modified: